DW9235 Weather Reports


time (UTC)temp
F
wind
direction
speed
knots
gust
knots
rain 1hr
in
rain 24hr
in
rain mn
in
humidity
%
barometer
mb
20260507224523 61 13 4.3 9.6 0.00 0.03 0.00 31 1016.2
20260507223022 61 36 3.5 11.3 0.00 0.03 0.00 29 1016.5
20260507221519 61 69 4.3 12.2 0.00 0.03 0.00 32 1016.6
20260507220017 61 92 1.7 8.7 0.00 0.05 0.00 34 1017.0
20260507214513 61 43 5.2 10.4 0.00 0.05 0.00 34 1017.5
20260507213011 61 18 5.2 12.2 0.00 0.05 0.00 32 1017.8
20260507211508 60 19 5.2 13.0 0.00 0.05 0.00 33 1018.2
20260507210005 60 44 5.2 15.6 0.00 0.11 0.00 30 1018.5
20260507204503 60 57 5.2 13.9 0.00 0.11 0.00 33 1018.8
20260507203001 60 111 2.6 10.4 0.00 0.11 0.00 35 1019.1
20260507201557 60 11 5.2 9.6 0.00 0.11 0.00 33 1019.8
20260507200054 59 65 5.2 10.4 0.00 0.11 0.00 31 1020.2
20260507194553 59 29 3.5 10.4 0.00 0.20 0.00 33 1020.5
20260507193057 59 71 3.5 11.3 0.00 0.20 0.00 31 1020.8
20260507191547 58 98 3.5 8.7 0.00 0.20 0.00 30 1021.0
20260507190044 58 23 3.5 10.4 0.00 0.20 0.00 32 1021.5
20260507184544 57 56 4.3 9.6 0.00 0.27 0.00 31 1021.5
20260507183042 57 17 1.7 6.1 0.00 0.27 0.00 30 1021.8
20260507181537 56 134 2.6 7.8 0.00 0.27 0.00 28 1021.9
20260507180035 56 335 3.5 8.7 0.00 0.27 0.00 29 1022.2
20260507174537 56 327 3.5 7.8 0.00 0.28 0.00 31 1022.5
20260507173033 56 52 1.7 6.1 0.00 0.28 0.00 31 1022.8
20260507171525 55 76 2.6 9.6 0.00 0.28 0.00 32 1023.2
20260507170022 54 5 2.6 8.7 0.00 0.28 0.00 36 1023.5
20260507164520 54 65 3.5 7.8 0.00 0.28 0.00 32 1023.6
20260507163017 53 38 4.3 8.7 0.00 0.28 0.00 36 1023.8
20260507161512 52 5 3.5 7.0 0.00 0.28 0.00 38 1024.0
20260507160009 51 311 5.2 11.3 0.00 0.28 0.00 42 1024.2
20260507154506 50 42 2.6 6.1 0.00 0.28 0.00 46 1024.3
20260507153004 48 325 4.3 7.8 0.00 0.28 0.00 48 1024.5
20260507151558 47 342 3.5 7.0 0.00 0.28 0.00 50 1024.8
20260507150054 46 10 2.6 7.8 0.00 0.28 0.00 53 1025.0
20260507144551 45 343 3.5 8.7 0.00 0.28 0.00 53 1024.9
20260507143048 44 5 3.5 9.6 0.00 0.28 0.00 53 1025.1
20260507141549 43 22 2.6 7.8 0.00 0.28 0.00 54 1025.2
20260507134536 40 27 1.7 5.2 0.00 0.28 0.00 57 1025.4
20260507133032 38 355 2.6 5.2 0.00 0.28 0.00 58 1025.4
20260507131528 37 355 2.6 5.2 0.00 0.28 0.00 60 1025.3
20260507130024 35 355 3.5 7.0 0.00 0.28 0.00 61 1025.4
20260507124524 34 19 2.6 5.2 0.00 0.28 0.00 63 1025.2
20260507123016 32 355 2.6 5.2 0.00 0.28 0.00 66 1025.0
20260507121513 31 5 1.7 5.2 0.00 0.28 0.00 66 1024.9
20260507120011 30 9 1.7 4.3 0.00 0.28 0.00 67 1024.9
20260507114510 30 5 1.7 3.5 0.00 0.28 0.00 67 1025.0
20260507113009 30 15 1.7 4.3 0.00 0.28 0.00 67 1025.0
20260507111510 29 5 1.7 4.3 0.00 0.28 0.00 69 1025.0
20260507110005 28 9 1.7 4.3 0.00 0.28 0.00 71 1025.0
20260507104503 28 342 0.9 2.6 0.00 0.28 0.00 72 1024.9
20260507103100 28 5 1.7 4.3 0.00 0.28 0.00 73 1025.1
20260507101558 27 351 0.9 2.6 0.00 0.28 0.00 76 1025.3
20260507100059 27 346 0.9 2.6 0.00 0.28 0.00 77 1025.4
20260507094556 27 350 0.9 2.6 0.00 0.28 0.00 78 1025.3
20260507093055 27 346 0.9 1.7 0.00 0.28 0.00 77 1025.4
20260507091553 28 347 0.0 2.6 0.00 0.28 0.00 76 1025.7
20260507090051 28 355 1.7 3.5 0.00 0.28 0.00 76 1025.9
20260507084554 28 355 1.7 4.3 0.00 0.28 0.00 78 1025.9
20260507083053 28 360 1.7 4.3 0.00 0.28 0.00 78 1026.0
20260507081545 27 342 2.6 4.3 0.00 0.28 0.00 81 1026.0
20260507080100 27 350 1.7 5.2 0.00 0.28 0.00 83 1026.0
20260507074545 27 360 1.7 4.3 0.00 0.28 0.00 85 1026.1
20260507073039 27 340 0.9 4.3 0.00 0.28 0.00 86 1026.2
20260507071553 27 355 1.7 4.3 0.00 0.28 0.00 88 1026.2
20260507070037 27 360 1.7 4.3 0.00 0.28 0.00 91 1026.2
20260507064533 26 355 0.9 3.5 0.00 0.28 0.00 92 1026.3
20260507063035 26 348 1.7 3.5 0.00 0.28 0.00 93 1026.3
20260507061530 26 348 0.9 2.6 0.00 0.28 0.00 93 1026.3
20260507060032 26 338 0.9 2.6 0.00 0.28 0.00 93 1026.2
20260507054526 26 330 1.7 3.5 0.00 0.28 0.28 93 1026.1
20260507053026 27 317 1.7 3.5 0.00 0.28 0.28 93 1026.1
20260507051525 27 311 2.6 5.2 0.00 0.28 0.28 93 1026.1
20260507050024 28 294 2.6 5.2 0.00 0.28 0.28 93 1026.1
20260507044524 28 284 4.3 8.7 0.00 0.28 0.28 93 1026.0
20260507043033 28 284 1.7 7.0 0.00 0.28 0.28 93 1026.0
20260507041524 28 298 5.2 9.6 0.00 0.28 0.28 92 1026.1
20260507040021 28 283 5.2 9.6 0.00 0.28 0.28 92 1026.0
20260507034521 28 290 1.7 6.1 0.00 0.28 0.28 91 1026.0
20260507033020 28 302 1.7 7.0 0.00 0.28 0.28 91 1026.0
20260507031518 28 298 5.2 10.4 0.00 0.28 0.28 91 1025.7
20260507030018 28 274 3.5 7.0 0.00 0.28 0.28 90 1025.5
20260507024517 29 252 3.5 7.0 0.00 0.28 0.28 90 1025.4
20260507023017 29 288 3.5 7.8 0.00 0.28 0.28 89 1025.4
20260507021517 29 269 3.5 7.0 0.00 0.28 0.28 88 1025.4
20260507020017 30 286 2.6 7.0 0.00 0.28 0.28 86 1025.2
20260507014517 31 275 2.6 7.0 0.00 0.28 0.28 85 1025.1
20260507013015 31 283 1.7 7.8 0.00 0.28 0.28 84 1025.0
20260507011530 32 275 4.3 7.8 0.00 0.28 0.28 81 1025.0
20260507010014 33 287 3.5 8.7 0.00 0.28 0.28 79 1024.8
20260507004518 34 263 5.2 7.0 0.00 0.28 0.28 78 1024.6
20260507003018 34 251 5.2 9.6 0.00 0.28 0.28 77 1024.6
20260507001512 34 286 3.5 7.0 0.00 0.28 0.28 79 1024.7
20260507000011 34 313 4.3 7.8 0.01 0.30 0.28 79 1025.0
20260506234512 34 326 4.3 6.1 0.01 0.30 0.28 78 1024.7
20260506233012 34 277 3.5 8.7 0.01 0.30 0.28 84 1024.8
20260506231508 34 294 2.6 6.1 0.02 0.30 0.28 84 1024.8
20260506230004 33 349 0.9 2.6 0.02 0.28 0.27 87 1024.8